TimeNZST,TemperatureF,Dew PointF,Humidity,Sea Level PressureIn,VisibilityMPH,Wind Direction,Wind SpeedMPH,Gust SpeedMPH,PrecipitationIn,Events,Conditions,WindDirDegrees,DateUTC
12:00 AM,44.6,44.6,100,29.65,6.2,NNW,3.5,-,N/A,,Scattered Clouds,340,2013-09-20 12:00:00
12:30 AM,53.6,46.4,77,29.62,6.2,North,9.2,-,N/A,,Overcast,360,2013-09-20 12:30:00
1:00 AM,55.4,44.6,67,29.62,6.2,North,8.1,-,N/A,,Overcast,350,2013-09-20 13:00:00
1:30 AM,57.2,42.8,59,29.65,6.2,NNW,9.2,-,N/A,,Mostly Cloudy,330,2013-09-20 13:30:00
2:00 AM,57.2,44.6,63,29.62,6.2,North,10.4,-,N/A,,Overcast,350,2013-09-20 14:00:00
2:30 AM,59.0,42.8,55,29.62,6.2,North,13.8,-,N/A,,Overcast,350,2013-09-20 14:30:00
3:00 AM,57.2,42.8,59,29.62,6.2,NNW,16.1,-,N/A,,Mostly Cloudy,340,2013-09-20 15:00:00
3:30 AM,57.2,42.8,59,29.62,6.2,North,15.0,-,N/A,,Scattered Clouds,350,2013-09-20 15:30:00
4:00 AM,59.0,42.8,55,29.59,6.2,NNW,18.4,-,N/A,,Mostly Cloudy,340,2013-09-20 16:00:00
4:30 AM,59.0,42.8,55,29.62,6.2,North,16.1,-,N/A,,Mostly Cloudy,350,2013-09-20 16:30:00
5:00 AM,59.0,44.6,59,29.62,6.2,North,13.8,-,N/A,,Scattered Clouds,350,2013-09-20 17:00:00
5:30 AM,59.0,42.8,55,29.62,6.2,North,12.7,-,N/A,,Scattered Clouds,350,2013-09-20 17:30:00
6:00 AM,60.8,42.8,52,29.62,6.2,NNW,11.5,-,N/A,,Overcast,340,2013-09-20 18:00:00
6:30 AM,59.0,44.6,59,29.62,6.2,NNE,9.2,-,N/A,,Overcast,20,2013-09-20 18:30:00
7:00 AM,55.4,44.6,67,29.62,6.2,NNE,9.2,-,N/A,,Overcast,30,2013-09-20 19:00:00
7:30 AM,59.0,44.6,59,29.62,6.2,North,12.7,-,N/A,,Mostly Cloudy,350,2013-09-20 19:30:00
8:00 AM,59.0,44.6,59,29.62,6.2,North,10.4,-,N/A,,Mostly Cloudy,350,2013-09-20 20:00:00
8:30 AM,59.0,44.6,59,29.62,6.2,North,6.9,-,N/A,,Overcast,10,2013-09-20 20:30:00
9:00 AM,59.0,44.6,59,29.62,6.2,NNW,9.2,-,N/A,,Mostly Cloudy,330,2013-09-20 21:00:00
9:30 AM,59.0,44.6,59,29.62,6.2,NNE,4.6,-,N/A,,Overcast,20,2013-09-20 21:30:00
10:00 AM,57.2,46.4,67,29.62,6.2,SE,6.9,-,N/A,,Overcast,130,2013-09-20 22:00:00
10:30 AM,59.0,46.4,63,29.65,6.2,East,6.9,-,N/A,Rain,Light Rain,80,2013-09-20 22:30:00
11:00 AM,57.2,48.2,72,29.65,6.2,East,10.4,-,N/A,,Drizzle,90,2013-09-20 23:00:00
11:30 AM,55.4,50.0,82,29.65,6.2,East,5.8,-,N/A,Rain,Light Rain Showers,90,2013-09-20 23:30:00
12:00 PM,55.4,51.8,88,29.65,6.2,ENE,4.6,-,N/A,Rain,Light Rain,60,2013-09-21 00:00:00
12:30 PM,55.4,53.6,94,29.65,6.2,NE,4.6,-,N/A,Rain,Light Rain,40,2013-09-21 00:30:00
1:00 PM,55.4,51.8,88,29.65,6.2,NNE,9.2,-,N/A,Rain,Light Rain,30,2013-09-21 01:00:00
1:30 PM,55.4,53.6,94,29.62,6.2,NNE,9.2,-,N/A,Rain,Light Rain,20,2013-09-21 01:30:00
2:00 PM,55.4,51.8,88,29.62,6.2,NNE,10.4,-,N/A,,Light Drizzle,30,2013-09-21 02:00:00
2:30 PM,55.4,53.6,94,29.62,6.2,NNE,8.1,-,N/A,,Mostly Cloudy,30,2013-09-21 02:30:00
3:00 PM,57.2,53.6,88,29.62,6.2,NE,9.2,-,N/A,,Mostly Cloudy,50,2013-09-21 03:00:00
3:30 PM,57.2,51.8,82,29.62,6.2,ENE,4.6,-,N/A,,Mostly Cloudy,70,2013-09-21 03:30:00
4:00 PM,57.2,51.8,82,29.62,6.2,East,5.8,-,N/A,,Mostly Cloudy,80,2013-09-21 04:00:00
4:30 PM,55.4,51.8,88,29.62,6.2,East,4.6,-,N/A,,Overcast,90,2013-09-21 04:30:00
5:00 PM,57.2,51.8,82,29.65,6.2,East,2.3,-,N/A,Rain,Light Rain,100,2013-09-21 05:00:00
5:30 PM,55.4,51.8,88,29.65,6.2,Calm,Calm,-,N/A,Rain,Light Rain,0,2013-09-21 05:30:00
6:00 PM,55.4,53.6,94,29.65,6.2,North,2.3,-,N/A,Rain,Light Rain,360,2013-09-21 06:00:00
6:30 PM,53.6,53.6,100,29.65,6.2,North,1.2,-,N/A,Rain,Light Rain Showers,360,2013-09-21 06:30:00
7:00 PM,51.8,51.8,100,29.65,6.2,NNE,3.5,-,N/A,,Overcast,30,2013-09-21 07:00:00
7:30 PM,51.8,51.8,100,29.65,6.2,NE,3.5,-,N/A,,Overcast,40,2013-09-21 07:30:00
8:00 PM,51.8,51.8,100,29.68,6.2,North,1.2,-,N/A,,Overcast,360,2013-09-21 08:00:00
8:30 PM,53.6,51.8,94,29.68,6.2,East,4.6,-,N/A,,Light Drizzle,100,2013-09-21 08:30:00
9:00 PM,53.6,51.8,94,29.68,4.3,ENE,6.9,-,N/A,Rain,Light Rain Showers,70,2013-09-21 09:00:00
9:30 PM,53.6,51.8,94,29.68,5.0,East,6.9,-,N/A,Rain,Light Rain,90,2013-09-21 09:30:00
10:00 PM,51.8,51.8,100,29.68,6.2,ENE,8.1,-,N/A,Rain,Light Rain,70,2013-09-21 10:00:00
10:30 PM,51.8,50.0,94,29.68,6.2,ENE,4.6,-,N/A,Rain,Light Rain Showers,70,2013-09-21 10:30:00
11:00 PM,51.8,50.0,94,29.68,6.2,ENE,4.6,-,N/A,Rain,Light Rain Showers,70,2013-09-21 11:00:00
11:30 PM,51.8,50.0,94,29.68,6.2,ENE,4.6,-,N/A,,Overcast,70,2013-09-21 11:30:00